STARLINK-35320

Last updated on Mon Oct 20 2025 00:02:07 GMT+0000 (Coordinated Universal Time)

1 65834U 25221M 25292.25002315 -.01554998 00000+0 -28566-1 0 9996 2 65834 53.1604 27.8214 0001061 82.4635 259.6793 15.51581460 4435
UTC large
Height (km)
Speed (km/s)
/
Latitude / Longitude
Inclination (degrees)
Orbital Period (minutes)
Azimuth
Elevation
Range (km)
Doppler Factor

Next 0 passes for location: London (51.5072 / 0.1276)

Sorry there are no passes over London.